STARLINK-30221, 57418

Orbit data source: Space-Track

STARLINK-30221, 57418 is a payload satellite owned by SpaceX/Seattle (US) in LEO that was launched on Thu, 20 Jul 2023 UTC via an FALCON 9 launch vehicle from the Air Force Western Test Range (AFWTR). Payload-class satellites include a variety of spacecraft equipped with specific instruments for various scientific and technological missions. These include communications satellites like Starlink; space stations such as the ISS; scientific satellites like the Hubble; Earth observation satellites from companies like Planet Labs, Umbra, and HawkEye 360; GPS; miniature CubeSats for education and research; and military/defense satellites.

Loading next visibility...
Identifier
57418, 2023-102Q
Orbit
LEO
Country
Flag of USUS
Related business
Manufacturer
SpaceX/Seattle
Mission
Operational Commercial Communications
Bus & Motor
STARLINK V2M, Unknown motor
Mass
730 kg wet, ~700 kg dry
Launch date (UTC)
2023-07-20 (3 years ago)
Launch vehicle
FALCON 9
Launch site
Air Force Western Test Range (AFWTR)
Object type
Payload
Rocket body
Debris
Shape & HBR
Box + 2 Pan, 17.7 m
Radar Cross Section
33.884 m², Large (>1 m²)

Expand to show TLE details & history
Last TLE update: 2 days ago

TLE from 2 days ago
0 STARLINK-30221
1 57418U 23102Q   26171.33944490  .00000657  00000-0  33409-4 0  9997
2 57418  43.0052  36.1438 0001436 255.3840 104.6853 15.27580779161856
Epoch: 2026-06-20T08:08Z
TLE epoch observation values (Epoch: 2026-06-20T08:08:48.039Z)
Latitude
0.00002°
Longitude
5.38817°
Altitude
483.073 km
Speed
7.626 km/s
True Right ascension
02h 24m 34s
True Declination
0° 00' 00"
Sunlit
Object was in daylight at epoch
Visualization orbit readout
Latitude
Unknown
Longitude
Unknown
Altitude
Unknown
Speed
Unknown
Apparent Right ascension
Unknown
Apparent Declination
Unknown
Sunlit
N/A
Visualization observer readout
Local Sidereal Time
21:27:47
Azimuth
Unknown
Elevation
Unknown
Doppler factor
Unknown
Orbital elements
Apogee altitude
485.977 km
Perigee altitude
484.006 km
Semi-major axis
6,863.128 km
Eccentricity
0.00014
Inclination
43.0052°
RAAN
36.1438°
Arg. of periapsis
255.384°
True anomaly
104.70122°
Mean anomaly
104.6853°
Eccentric anomaly
104.69326°
Mean motion
3.81733 °/min
Orbital period
94.31 mins
BSTAR
0.000033409
Loading maneuver chart data...
Computing Atmospheric mass density...
Loading historical data...
Loading historical data...
Loading historical data...
Loading historical data...
Loading historical data...
Loading historical data...
Loading historical data...

Documentation

Showing up to 5 results
|